SCP
0 0 0 0 0 0 0 0 0 0 0 0 0 0 0 0 0 0 0 0 0 0 0 0 0 0 0 0 0 0 0 0 0 0 0 0 0 0 -0 -0 0 0 0
0 0 0 0 0 0 0 0 0 0 0 0 0 0 0 0 0 0 0 0 0 0 0 0 0 0 0 0 0 0 0 0 0 0 0 0 0 0 0 -0 0 0 0
0 0 0 0 0 0 0 0 0 0 0 0 0 0 0 0 0 0 0 0 0 0 0 0 0 0 0 0 0 0 0 0 0 0 0 0 0 0 0 0 0 0 0
0 0 0 0 0 0 0 0 0 0 0 0 0 0 0 0 0 0 0 0 0 0 0 0 0 0 0 0 0 0 0 0 0 0 0 0 0 0 0 0 0 0 0
0 0 0 0 0 0 0 0 0 0 0 0 0 0 0 0 0 0 0 0 0 0 0 0 0 0 0 0 0 0 0 0 0 0 0 0 0 0 0 0 0 0 0
0 0 0 0 0 0 0 0 0 0 0 0 0 0 0 0 0 0 0 0 0 0 0 0 0 0 0 0 0 0 0 0 0 0 0 0 0 0 0 0 0 0 0
0 0 0 0 0 0 0 0 0 0 0 0 0 0 0 0 0 0 0 0 0 0 0 0 0 0 0 0 0 0 0 0 0 0 0 0 0 0 0 0 0 0 0
0 0 0 0 0 0 0 0 0 0 0 0 0 0 0 0 0 0 0 0 0 0 0 0 0 0 0 0 0 0 0 0 0 0 0 0 0 0 0 0 0 0 0
0 0 0 0 0 0 0 0 0 0 0 0 0 0 0 0 0 0 0 0 0 0 0 0 0 0 0 0 0 0 0 0 0 0 0 0 0 0 0 0 0 0 0
0 0 0 0 0 0 0 0 0 0 0 0 0 0 0 0 0 0 0 0 0 0 0 0 0 0 0 0 0 0 0 0 0 0 0 0 0 0 0 0 0 0 0
0 0 0 0 0 0 0 0 0 0 0 0 0 0 0 0 0 0 0 0 0 0 0 0 0 0 0 0 0 0 0 0 0 0 0 0 0 0 0 0 0 0 0
0 0 0 0 0 0 0 0 0 0 0 0 0 0 0 0 0 0 0 0 0 0 0 0 0 0 0 0 0 0 0 0 0 0 0 0 0 0 0 0 0 0 0
0 0 0 0 0 0 0 0 0 0 0 0 0 0 0 0 0 0 0 0 0 0 0 0 0 0 0 0 0 0 0 0 0 0 0 0 0 0 0 0 0 0 0
0 0 0 0 0 0 0 0 0 0 0 0 0 0 0 0 0 0 0 0 0 0 0 0 0 0 0 0 0 0 0 0 0 0 0 0 0 0 0 0 0 0 0
0 0 0 0 0 0 0 0 0 0 0 0 0 0 0 0 0 0 0 0 0 0 0 0 0 0 0 0 0 0 0 0 0 0 0 0 0 0 0 0 0 0 0
0 0 0 0 0 0 0 0 0 0 0 0 0 0 0 0 0 0 0 0 0 0 0 0 0 0 0 0 0 0 0 0 0 0 0 0 0 0 0 0 0 0 0
0 0 0 0 0 0 0 0 0 0 0 0 0 0 0 0 0 0 0 0 0 0 0 0 0 0 0 0 0 0 0 0 0 0 0 0 0 0 0 0 0 0 0
0 0 0 0 0 0 0 0 0 0 0 0 0 0 0 0 0 0 0 0 0 0 0 0 0 0 0 0 0 0 0 0 0 0 0 0 0 0 0 0 0 0 0
0 0 0 0 0 0 0 0 0 0 0 0 0 0 0 0 0 0 0 0 0 0 0 0 0 0 0 0 0 0 0 0 0 0 0 0 0 0 0 0 0 0 0
0 0 0 0 0 0 0 0 0 0 0 0 0 0 0 0 0 0 0 0 0 0 0 0 0 0 0 0 0 0 0 0 0 0 0 0 0 0 0 0 0 0 0
0 0 0 0 0 0 0 0 0 0 0 0 0 0 0 0 0 0 0 0 0 0 0 0 0 0 0 0 0 0 0 0 0 0 0 0 0 0 0 0 0 0 0
0 0 0 0 0 0 0 0 0 0 0 0 0 0 0 0 0 0 0 0 0 0 0 0 0 0 0 0 0 0 0 0 0 0 0 0 0 0 0 0 0 0 0
0 0 0 0 0 0 0 0 0 0 0 0 0 0 0 0 0 0 0 0 0 0 0 0 0 0 0 0 0 0 0 0 0 0 0 0 0 0 0 0 0 0 0
0 0 0 0 0 0 0 0 0 0 0 0 0 0 0 0 0 0 0 0 0 0 0 0 0 0 0 0 0 0 0 0 0 0 0 0 0 0 0 0 0 0 0
0 0 0 0 0 0 0 0 0 0 0 0 0 0 0 0 0 0 0 0 0 0 0 0 0 0 0 0 0 0 0 0 0 0 0 0 0 0 0 0 0 0 0
0 0 0 0 0 0 0 0 0 0 0 0 0 0 0 0 0 0 0 0 0 0 0 0 0 0 0 0 0 0 0 0 0 0 0 0 0 0 0 0 0 0 0
Wind_Speed
9 8 8 8 8 8 7 8 7 6 6 6 5 4 4 3 2 1 1 1 2 2 3 3 3 3 3 3 3 3 3 4 10 13 8 7 9 11 13 11 11 10 11
9 8 8 8 8 8 8 8 7 7 6 6 5 4 3 3 2 1 1 1 2 3 3 3 4 4 4 4 3 4 4 4 7 16 14 9 9 10 12 13 13 12 10
9 9 9 8 8 8 8 8 7 7 6 6 5 4 4 3 3 3 3 3 3 4 4 4 4 4 5 4 4 4 4 6 5 11 15 11 9 9 12 13 12 9 12
10 10 10 10 9 9 8 8 8 7 7 6 5 5 4 4 4 4 4 3 4 4 4 5 5 5 5 5 5 5 6 6 7 10 12 12 11 10 10 11 12 9 10
12 12 11 10 9 8 8 8 8 7 7 6 6 5 5 4 5 5 4 4 4 5 5 5 6 7 10 8 7 6 6 6 7 9 12 12 12 11 11 11 14 13 10
13 13 11 10 10 10 9 9 8 7 6 6 6 6 6 6 9 11 7 5 5 6 7 6 6 6 10 13 15 15 13 9 7 9 12 13 15 14 13 13 14 16 15
12 11 11 11 11 10 10 9 10 9 8 7 7 7 7 9 13 13 12 7 6 6 7 7 7 5 6 7 11 15 14 17 19 15 15 16 17 16 17 18 16 17 17
12 11 11 11 11 10 9 10 9 7 8 8 8 8 8 10 15 14 13 8 6 8 8 8 8 7 7 9 9 9 10 11 15 13 13 16 16 16 17 18 18 17 15
13 12 12 12 11 11 11 11 9 8 8 8 7 8 9 10 14 15 13 5 6 9 9 8 8 7 12 15 10 8 11 11 16 21 23 24 28 28 23 14 12 13 13
14 12 11 11 11 12 12 10 7 7 8 7 7 8 9 8 13 15 14 5 6 7 7 8 10 12 14 15 8 7 9 11 10 11 15 18 17 18 22 14 11 11 12
9 8 9 10 10 10 8 7 6 7 6 6 7 6 7 8 11 16 16 7 6 6 6 6 7 13 14 14 12 6 11 13 6 7 9 10 11 10 11 11 11 10 11
8 8 8 8 8 7 8 7 6 7 7 6 5 6 6 6 10 13 17 17 13 8 7 6 7 14 15 14 10 12 16 11 4 6 7 8 9 9 10 12 14 13 13
8 8 7 6 6 6 7 8 6 6 6 6 6 7 6 6 8 15 16 17 18 10 7 12 14 15 13 8 10 14 9 3 4 5 7 9 9 10 12 11 12 12 13
8 7 6 7 6 5 5 6 6 7 7 6 6 6 5 4 5 5 5 7 11 11 8 8 11 12 9 7 5 6 4 4 5 6 8 9 9 9 9 9 10 10 10
7 7 6 6 6 6 5 5 6 5 7 7 6 5 5 5 7 11 7 6 6 7 5 3 2 2 3 3 3 4 4 4 5 5 6 7 9 9 10 9 8 10 10
7 6 5 5 5 5 4 3 9 9 11 13 12 9 6 10 12 14 15 16 17 16 8 4 4 4 4 4 4 4 4 4 5 5 5 6 8 9 10 9 9 9 10
6 6 5 5 5 5 4 4 3 4 8 10 11 12 12 12 14 16 16 17 17 15 8 4 4 4 4 4 4 4 5 5 4 5 6 6 7 8 9 10 10 10 10
5 5 5 4 4 4 4 3 2 2 1 2 5 9 12 13 15 16 16 14 9 7 4 4 4 4 4 4 4 4 5 5 4 5 5 6 6 8 9 9 10 10 11
5 4 4 4 4 4 3 3 2 2 2 2 1 4 7 11 13 14 13 7 6 5 4 4 4 4 4 4 4 4 5 5 5 5 5 6 6 7 8 9 10 13 12
5 7 6 5 4 4 3 3 2 2 2 2 3 3 2 2 3 5 5 5 5 4 4 4 4 4 4 4 4 4 5 5 5 5 5 6 6 6 8 10 10 10 10
5 6 6 5 4 4 3 3 2 2 2 3 3 5 8 4 4 5 5 5 5 5 4 4 4 5 5 4 4 5 6 6 5 5 5 5 6 6 7 9 10 10 10
5 5 4 4 4 3 3 2 2 2 3 3 3 5 10 5 4 5 5 5 5 4 4 4 4 5 5 5 5 5 5 6 6 5 5 5 5 6 7 8 9 9 9
5 5 5 4 3 4 3 2 2 3 3 4 4 4 4 4 5 5 6 5 4 4 4 4 5 5 5 5 5 6 6 7 6 5 5 6 6 6 7 8 10 10 9
5 5 5 4 3 3 3 3 3 3 4 4 4 4 5 5 5 6 6 5 5 5 4 5 6 8 9 7 5 5 6 7 6 6 7 7 8 7 7 8 8 8 8
4 4 4 3 3 3 3 3 3 4 4 4 4 4 5 5 5 6 5 5 6 6 7 6 6 7 10 10 9 8 10 12 10 7 6 7 9 10 9 9 7 7 7
3 3 3 3 3 3 3 3 4 4 4 4 4 5 5 5 5 5 5 5 6 6 7 6 8 9 10 9 10 12 13 15 14 13 9 8 9 9 8 6 7 6 6
Wind_Direction
154 149 143 142 140 139 139 142 141 140 141 137 134 131 127 120 106 84 69 36 348 321 314 321 315 311 306 308 304 293 286 287 289 294 299 313 320 318 315 310 309 307 309
158 151 152 150 148 150 151 149 145 145 146 144 145 150 157 161 162 179 228 239 261 279 287 293 290 296 295 293 291 292 290 285 287 296 303 312 313 311 309 311 311 311 310
161 159 161 162 162 164 159 153 151 151 151 153 162 175 181 185 195 214 228 239 246 256 266 270 274 283 285 283 288 287 287 292 289 293 298 307 308 310 308 305 303 304 309
168 169 173 174 173 170 161 157 159 159 163 171 180 188 190 194 207 222 229 240 251 258 261 262 263 265 273 281 287 281 286 287 291 293 296 303 305 304 302 308 308 303 304
175 180 183 176 171 167 164 163 163 167 174 176 182 190 195 202 214 217 226 243 254 263 262 258 259 266 274 280 280 273 278 279 286 291 295 299 302 309 308 307 303 303 296
182 187 181 173 173 174 171 167 167 173 176 179 190 194 206 216 227 228 228 238 254 261 267 266 264 262 274 284 290 292 290 288 287 286 291 293 298 300 301 300 300 300 301
184 184 180 176 179 180 172 171 179 183 183 192 199 201 213 226 232 234 237 240 247 256 264 269 271 266 266 276 284 290 293 291 290 289 289 291 295 297 296 294 291 290 293
184 186 182 179 182 176 174 184 188 184 192 199 205 207 214 227 234 237 240 242 247 254 256 257 263 267 268 276 276 279 283 287 289 289 285 288 291 294 292 293 296 295 292
187 189 186 182 180 178 187 194 191 187 196 202 203 205 214 229 233 238 239 230 245 255 256 254 254 258 270 280 285 283 289 293 300 301 301 301 302 304 304 302 298 296 296
192 190 183 181 183 189 196 194 187 190 200 200 211 208 214 223 233 240 240 226 242 252 255 257 255 260 269 279 282 285 294 300 306 311 311 308 307 304 304 300 300 298 299
177 170 173 181 189 192 189 182 178 184 188 201 214 217 218 223 238 244 243 228 229 244 248 251 255 268 276 284 294 294 295 308 325 319 310 306 306 304 304 304 305 304 301
156 165 176 181 182 179 177 177 173 176 187 203 216 233 230 227 230 244 247 244 239 233 240 250 257 269 276 288 301 301 307 320 321 305 302 304 306 306 307 308 305 300 292
155 167 170 166 167 166 170 172 168 174 190 205 211 232 236 221 230 240 246 249 251 245 241 251 260 267 279 295 299 300 312 308 291 293 297 300 302 303 306 305 303 299 294
159 163 159 159 160 158 163 168 175 185 197 208 216 227 232 222 212 219 232 250 257 259 265 262 266 273 279 285 285 293 287 275 279 285 291 298 304 304 302 305 308 311 306
155 157 159 163 164 168 179 190 191 197 197 204 213 215 221 233 230 231 226 224 227 236 232 213 210 231 246 256 260 261 266 274 277 280 291 300 303 305 306 308 305 307 305
156 162 163 162 162 164 170 203 234 226 233 239 237 234 236 247 259 257 256 253 250 246 234 207 213 220 232 241 251 263 266 269 276 287 291 294 301 306 307 308 307 306 307
160 161 158 158 160 166 170 179 206 244 245 251 255 259 259 262 265 266 265 265 262 254 242 212 213 220 228 236 243 252 264 271 280 286 288 292 299 301 303 305 309 310 308
142 144 145 148 149 154 160 163 167 180 227 272 281 280 280 279 279 277 275 273 265 251 215 207 216 219 224 233 242 252 264 276 279 280 283 287 291 296 301 304 307 309 309
135 132 127 125 126 129 131 134 144 176 214 245 271 289 289 292 292 286 283 269 257 239 219 217 216 218 225 230 239 247 256 266 271 276 279 282 286 294 298 301 305 307 308
124 127 125 125 123 125 130 141 160 191 224 245 255 260 264 277 275 280 274 271 261 247 230 222 220 221 226 231 237 245 255 261 268 269 275 281 286 290 296 301 303 307 308
123 123 123 122 130 138 144 158 176 197 224 244 252 267 275 261 255 253 252 253 248 245 239 231 227 227 229 230 233 240 248 258 260 264 272 278 284 291 294 295 298 303 307
125 130 134 136 137 143 150 163 182 209 232 250 259 280 293 293 277 272 266 260 248 239 233 230 234 233 230 227 229 234 244 254 258 260 268 277 284 288 290 293 299 307 311
126 132 133 136 139 146 155 182 203 219 235 247 259 263 268 266 266 267 269 268 262 253 239 232 242 249 243 235 229 228 239 248 249 250 265 278 282 281 284 290 297 307 311
129 136 141 148 157 170 187 203 215 224 234 244 251 256 258 259 261 265 266 267 263 257 248 242 245 250 251 248 242 238 242 249 248 245 245 257 270 275 278 282 291 300 305
133 140 149 162 175 188 203 215 226 234 240 244 248 252 256 258 261 262 262 262 261 259 257 251 252 253 255 252 249 248 253 260 260 249 244 249 257 261 266 274 284 297 303
145 155 166 177 190 202 213 225 235 241 245 248 249 252 255 258 261 263 263 262 263 263 263 259 254 254 256 258 257 258 258 259 253 244 232 240 248 255 259 265 278 286 297